Orbital Elements at Epoch 2459200.5 (2020-Dec-17.0) TDB
Reference: JPL 15 (heliocentric ecliptic J2000)
Element | Value | Uncertainty (1-sigma) | Units |
e | .005585154487267571 | 4.1068e-08 | |
a | 2.869677968831747 | 1.6474e-08 | au |
q | 2.853650374047113 | 1.1395e-07 | au |
i | 2.891106169312251 | 4.0752e-06 | deg |
node | 134.3837509611593 | 0.00010341 | deg |
peri | 32.94316320513121 | 0.00048873 | deg |
M | 113.8368668767563 | 0.00047595 | deg |
tp | 2458639.027350621559 (2019-Jun-04.52735062) | 0.002348 | TDB |
period | 1775.61241205867 4.86 | 1.529e-05 4.186e-08 | d yr |
n | .2027469494779049 | 1.7459e-09 | deg/d |
Q | 2.88570556361638 | 1.6566e-08 | au |
|
| | Orbit Determination Parameters
Additional Information
|